Raleigh-Durham International Airport

Airport
ICAO code: 
KRDU
Summary
ICAO Region: 
NAM
Territory: 
Location: 
Raleigh, North Carolina,
Coordinates: 
Aerial View: 
35° 52' 36.203" N, 78° 47' 35.009" W
Airport LOS: 
Parallel Runway Operation
Metar
Observation
KRDU 241651Z 19003KT 10SM BKN250 09/M03 A2994 RMK AO2 SLP139 T00891028
Station
Raleigh / Durham, Raleigh-Durham International Airport
Date/Time
2022-01-24 16:51:00
Wind direction
190°
Wind speed
03 kts
Lowest cloud amount
broken clouds
Temperature
8.9°C
Dew point
-2.8°C
Humidity
43%
Weather condition
n/a

Description

Raleigh–Durham International Airport is a public use airport located 7 km northeast of the town of Morrisville in Wake County, North Carolina.

Climatology

Humid “subtropical” climate (Köppen climate classification Cfa) - characterized by hot, humid summers and cool winters. Significant amounts of precipitation occur in all seasons in most areas. Winter rainfall (and sometimes snowfall) is associated with large storms that the westerlies steer from west to east. Most summer rainfall occurs during thunderstorms and occasional tropical storms (hurricanes).

Runways

Designator Length Width Surface Rops
14/32 1088 30 ASP Yes/Yes
05R/23L 2286 46 ASP Yes/Yes
05L/23R 3048 46 CON Yes/Yes
Airport map: 
Aerial View: 

SKYbrary Partners:

Safety knowledge contributed by: